Regional Weather Roundup
Issued by NWS

Home | Current Version | Previous Version | Text Only | Print | Product List | Glossary On
Versions: 1 2 3 4 5 6 7 8 9 10 11 12 13 14 15 16 17 18 19 20 21 22 23 24 25 26 27 28 29 30 31 32 33 34 35 36 37 38 39 40 41 42 43 44 45 46 47 48 49 50
000
ASUS46 KPQR 310110
RWROR

OREGON REGIONAL WEATHER ROUNDUP
NATIONAL WEATHER SERVICE PORTLAND OR
600 PM PDT MON MAY 30 2016

NOTE: "FAIR" INDICATES FEW OR NO CLOUDS BELOW 12,000 FEET WITH
NO SIGNIFICANT WEATHER AND/OR OBSTRUCTIONS TO VISIBILITY.

ORZ001>013-310200-
NORTHWEST OREGON


CITY           SKY/WX    TMP DP  RH WIND       PRES   REMARKS
ASTORIA        MOSUNNY   65  51  60 NW20      30.17F
NEWPORT        MOSUNNY   59  52  77 N17G24    30.16F
PORTLAND       PTSUNNY   77  39  25 N10       30.11F
VANCOUVER WA   PTSUNNY   76  40  27 NW9       30.11F
SCAPPOOSE      PTSUNNY   75  43  31 N12       30.12F
HILLSBORO      PTSUNNY   77  43  29 NE6       30.11F
AURORA         PTSUNNY   77  41  27 NE8       30.12F
MCMINNVILLE    PTSUNNY   78  37  22 N8        30.12F
SALEM          PTSUNNY   77  42  28 N13       30.10F
CORVALLIS        N/A     79  36  21 N13       30.12S
EUGENE         PTSUNNY   74  45  35 N12       30.10F
$$

ORZ021-028-310200-
SOUTHWEST OREGON


CITY           SKY/WX    TMP DP  RH WIND       PRES   REMARKS
NORTH BEND     MOSUNNY   64  50  59 N21       30.09F
BROOKINGS      SUNNY     71  53  52 SE6       29.96F
ROSEBURG       SUNNY     80  39  23 N14       30.05F
SEXTON SUMMIT  SUNNY     68  40  35 VRB5      30.13F
MEDFORD        SUNNY     87  32  14 VRB5      29.99F
$$

ORZ014>016-041-310200-
COLUMBIA GORGE


CITY           SKY/WX    TMP DP  RH WIND       PRES   REMARKS
TROUTDALE      PTSUNNY   77  46  33 NW10      30.10F
THE DALLES     MOSUNNY   80  29  15 CALM      30.09F
$$

ORZ029>031-041-044-049-050-061>064-502-503-505>511-310200-
EASTERN OREGON


CITY           SKY/WX    TMP DP  RH WIND       PRES   REMARKS
REDMOND        MOSUNNY   73  24  16 N9        30.14F
BEND           MOSUNNY   70  27  19 N9        30.15F
PRINEVILLE     MOSUNNY   72  30  21 N15       30.15F
KLAMATH FALLS  SUNNY     77  32  19 VRB6      30.11F
LAKEVIEW       MOSUNNY   73  32  21 NE3       30.16S
HERMISTON      MOSUNNY   76  30  18 E5        30.12F
PENDLETON      SUNNY     72  28  19 NE8       30.14F
JOHN DAY         N/A    N/A N/A N/A MISG        N/A
MEACHAM        SUNNY     62  27  26 VRB5      30.21S
LA GRANDE      SUNNY     72  32  23 NW14      30.14S
BAKER CITY     SUNNY     68  32  26 NW18G26   30.14S
BURNS          SUNNY     73  31  21 S9        30.12F
ROME             N/A     78  23  13 NE8       30.09F
ONTARIO        SUNNY     80  25  13 N10       30.07F
$$



USA.gov is the U.S. government's official web portal to all federal, state and local government web resources and services.